Wind_Speed
16 17 18 20 21 23 24 26 26 25 26 28 32 34 35 35 36 37 39 40 41 42 43 44 45 46 47 48 48 48 48 47 47 47 47 47 46 46 46 46 46 46 46 45
17 18 19 19 20 20 23 25 26 25 25 27 29 31 33 34 36 37 38 38 39 40 42 43 44 45 46 47 47 48 48 48 48 48 48 47 47 46 46 47 46 47 46 46
18 20 20 20 20 20 20 23 25 25 24 25 27 28 31 33 34 36 38 38 37 38 40 42 43 44 45 46 47 47 47 47 48 48 49 48 48 47 47 46 46 46 46 46
16 18 19 18 21 22 21 22 24 24 26 26 26 28 29 31 33 34 36 38 38 39 39 40 42 43 44 45 45 47 48 48 48 48 48 49 49 48 48 49 47 46 46 47
16 16 17 18 19 20 22 23 24 24 25 25 26 28 29 31 32 33 34 36 38 38 39 39 40 42 43 44 45 45 46 47 47 47 48 48 48 48 48 49 49 47 47 47
16 16 16 16 17 18 19 21 23 24 24 25 26 27 29 31 31 32 33 34 36 38 39 39 39 40 41 42 43 43 44 45 45 46 47 47 47 48 48 48 48 49 48 47
16 16 15 15 16 16 17 19 21 23 24 26 26 26 27 29 30 30 32 33 35 37 38 39 39 40 40 40 41 42 42 42 43 44 45 46 47 47 48 48 48 48 48 47
15 15 15 15 15 16 17 17 19 21 22 24 25 26 27 27 29 30 31 32 34 34 35 37 39 40 40 40 41 41 41 42 42 42 42 44 45 45 46 47 47 47 47 47
15 15 15 15 16 17 18 18 19 19 20 21 23 25 26 27 28 29 30 31 31 32 33 35 36 38 39 40 40 40 40 41 42 42 41 41 41 42 43 44 45 46 46 46
15 15 15 16 16 18 19 20 20 20 20 21 22 24 26 28 28 29 30 30 31 31 32 33 35 36 38 39 40 40 40 40 40 40 40 40 40 40 41 42 43 43 44 45
16 15 15 16 17 18 19 20 21 21 20 21 22 23 24 26 28 29 30 30 30 30 31 31 33 34 35 37 39 39 39 39 39 40 40 39 39 39 39 40 41 41 41 42
18 17 17 17 18 18 20 20 21 21 21 21 22 23 24 25 25 27 28 30 30 31 30 30 31 32 33 35 36 38 38 38 38 38 39 39 39 39 39 39 40 41 41 41
18 18 18 18 18 19 20 20 21 21 21 22 23 23 23 24 24 25 25 27 28 29 29 30 30 31 32 33 34 36 37 37 37 37 38 38 38 38 38 38 39 39 40 41
19 19 19 18 19 19 20 21 21 21 22 22 23 23 24 24 24 24 24 25 26 27 28 29 29 30 31 31 32 34 35 36 37 37 37 38 38 38 38 38 38 38 39 40
20 20 20 20 20 20 20 21 21 22 22 22 23 23 23 24 25 24 24 24 24 25 26 27 28 30 31 31 32 32 34 35 36 36 36 37 37 37 37 38 38 38 38 39
19 20 20 20 20 21 21 21 21 22 22 23 23 23 24 24 25 25 25 24 25 25 25 26 27 27 29 31 32 32 32 33 34 35 35 35 36 36 37 37 37 37 37 38
18 19 19 19 20 20 21 22 22 22 22 23 23 23 23 23 24 25 25 24 24 25 26 26 26 26 27 29 30 31 31 31 32 33 34 34 34 35 35 36 36 36 36 37
18 18 18 19 19 20 20 20 21 21 22 22 23 23 23 23 23 24 25 25 24 24 25 25 25 25 26 26 27 28 29 30 31 31 32 33 33 34 35 35 36 36 36 36
17 17 18 18 18 18 19 19 19 19 20 21 21 22 22 22 22 23 24 24 24 24 24 25 25 25 25 25 26 26 27 28 30 30 31 32 33 33 34 35 35 35 36 35
17 17 18 18 17 17 17 18 18 19 19 20 20 21 21 21 21 22 22 23 23 23 24 25 25 25 25 26 26 26 27 27 28 30 31 32 33 33 33 33 33 34 34 35
18 18 18 18 18 17 16 17 17 17 18 18 19 20 20 21 21 21 21 22 22 23 23 24 25 25 26 26 26 27 27 28 28 29 30 31 31 32 32 32 32 32 32 33
19 19 19 19 18 17 17 17 17 17 18 18 19 19 20 20 20 21 21 21 21 22 22 22 23 24 25 26 26 26 27 28 28 28 29 30 31 31 31 31 31 31 32 32
19 19 19 18 18 17 17 17 17 17 17 18 18 19 19 20 20 21 22 22 22 22 22 23 23 23 24 25 25 25 26 27 28 28 28 28 29 30 31 31 31 31 31 31
18 18 18 18 18 18 17 17 17 17 18 18 18 19 19 20 20 21 21 22 22 22 22 23 23 23 24 24 25 25 26 26 26 27 27 28 28 28 29 29 30 30 30 30
18 18 18 18 19 19 19 18 18 17 18 18 18 19 19 19 20 20 21 22 22 22 22 23 23 24 24 24 24 24 25 25 26 27 27 27 27 28 28 28 29 29 30 30
19 19 18 19 19 19 19 19 18 18 18 18 19 19 19 19 20 20 21 21 22 22 22 23 23 24 24 25 25 25 25 25 25 25 25 26 26 26 27 28 28 29 29 29
20 19 19 19 19 19 19 19 18 18 18 19 19 19 19 19 20 20 20 20 21 21 21 22 22 22 23 23 24 24 24 24 24 24 23 24 24 25 26 27 28 28 29 29
Wind_Direction
264 258 252 245 241 240 238 239 241 242 241 239 235 233 235 234 233 233 232 231 230 231 231 231 232 233 234 235 235 236 237 237 238 238 239 241 242 242 244 245 247 248 249 250
262 257 255 249 243 242 241 240 239 241 241 237 234 233 234 235 235 234 233 233 233 233 233 233 234 235 236 237 237 238 239 239 239 239 240 241 241 242 244 245 247 248 249 250
266 259 253 249 246 245 244 240 239 240 240 236 234 233 233 233 235 236 235 234 235 235 235 235 236 236 237 238 239 240 240 241 241 241 241 242 242 243 243 246 247 248 249 250
273 263 258 254 251 248 246 241 239 239 239 236 235 235 235 235 234 235 235 235 235 235 235 236 237 237 238 239 240 241 242 242 242 242 242 243 243 243 245 246 248 249 250 251
279 270 261 255 254 252 248 241 239 238 238 237 238 237 237 236 236 236 235 235 235 235 237 238 238 239 239 240 241 242 243 243 243 243 243 244 244 245 246 248 248 250 251 251
283 276 267 258 254 253 250 245 241 240 241 242 241 239 236 234 236 237 236 236 236 237 238 239 239 239 239 240 241 242 243 243 244 245 245 246 246 247 248 248 248 248 250 252
287 280 271 262 256 255 254 248 243 243 243 243 241 240 237 236 236 236 237 237 238 239 239 240 240 240 240 241 241 242 242 243 244 246 246 247 247 247 247 248 248 249 250 252
293 284 275 267 260 256 255 249 247 246 244 242 240 240 240 239 237 237 238 239 240 240 240 241 241 242 242 243 242 242 242 243 244 245 247 247 247 248 248 248 249 249 250 251
296 287 278 270 264 260 257 254 251 250 247 244 242 241 241 239 239 238 239 241 241 242 242 242 243 243 242 242 242 243 244 245 245 246 246 247 247 247 248 248 249 250 250 250
298 288 279 273 268 263 258 256 252 253 250 248 245 243 243 242 241 241 240 241 243 244 244 244 245 244 243 243 243 243 245 246 246 245 246 246 247 247 248 248 248 249 249 250
298 290 282 275 271 266 262 259 256 255 253 251 248 245 244 244 243 241 241 242 245 246 247 247 246 245 244 244 243 243 244 245 245 245 245 246 247 248 248 248 249 249 250 251
297 292 287 279 272 269 265 261 257 255 254 254 250 247 245 245 245 246 245 246 247 248 248 249 248 247 245 245 244 243 243 244 245 245 245 246 247 248 249 249 249 250 250 251
295 292 289 284 276 271 267 262 258 255 254 254 253 251 248 246 247 248 248 249 249 248 248 249 249 248 247 246 245 244 244 244 244 245 246 246 247 248 249 250 250 250 251 251
294 291 288 286 281 275 270 266 263 258 256 256 255 254 252 250 250 250 249 249 249 249 249 248 247 248 247 247 247 246 245 245 245 246 246 246 247 248 249 250 250 251 252 252
294 292 289 285 281 277 272 269 265 261 260 259 257 255 254 253 252 250 250 251 251 251 250 249 248 248 247 248 248 248 248 247 247 247 247 247 247 248 249 250 250 251 253 254
292 292 291 288 283 278 273 271 268 264 261 260 260 258 256 254 252 250 250 251 251 252 252 250 250 250 249 249 250 250 249 248 248 247 247 247 247 248 249 250 251 252 253 254
295 294 293 291 287 282 276 272 269 266 264 262 260 259 257 255 253 251 250 251 251 252 252 252 253 253 253 251 251 250 249 248 248 247 246 246 248 249 250 251 252 253 253 254
299 297 295 293 289 285 280 275 271 268 265 263 261 259 258 257 254 252 251 251 252 254 254 254 255 255 255 255 253 252 251 248 249 249 248 248 249 250 251 252 252 252 253 254
302 301 300 297 293 289 283 277 273 269 267 263 261 261 259 256 255 254 253 252 253 254 253 254 254 254 255 256 255 253 252 250 249 249 250 250 250 251 252 253 253 252 253 254
303 303 302 301 298 294 287 280 275 270 268 265 263 262 260 258 256 254 253 254 256 255 253 253 253 255 256 256 255 254 253 252 252 252 251 251 252 252 253 254 255 255 255 255
303 303 303 303 301 298 291 284 277 272 268 266 265 265 263 260 258 255 254 254 256 257 256 255 255 255 256 256 255 256 255 255 255 255 254 253 251 251 251 252 253 255 256 257
305 304 303 303 302 299 294 289 283 276 270 267 266 265 264 261 258 255 254 255 256 257 258 259 258 258 257 256 255 256 256 256 256 256 255 253 251 250 251 253 254 255 258 259
305 304 303 303 303 300 297 292 286 280 274 269 268 266 266 263 260 257 256 257 258 260 260 260 260 261 260 258 257 258 258 257 256 256 257 255 253 252 253 255 256 257 259 261
307 305 303 301 301 300 298 294 288 282 277 272 269 268 267 265 263 261 259 259 261 262 262 261 261 261 260 259 259 260 259 258 256 257 258 256 255 255 256 256 257 258 259 262
307 305 303 302 300 298 296 294 290 284 279 274 270 268 267 266 264 263 262 261 261 260 261 262 262 262 262 261 261 261 261 260 259 260 259 257 256 256 257 257 258 259 261 262
305 304 303 302 300 298 296 293 288 283 279 276 273 270 269 267 267 266 264 262 262 261 262 263 263 262 262 262 261 262 263 263 263 262 260 258 257 257 257 257 258 260 261 262
304 303 303 303 301 298 296 293 288 284 281 279 277 273 270 268 267 266 265 265 263 263 264 265 264 263 262 262 262 262 262 262 262 261 260 260 260 260 260 260 261 262 263 264
Height
5504 5504 5505 5506 5508 5510 5512 5513 5516 5519 5522 5526 5529 5533 5537 5542 5546 5551 5556 5561 5566 5571 5576 5582 5587 5592 5597 5602 5607 5613 5618 5622 5627 5631 5635 5639 5642 5646 5649 5653 5656 5659 5662 5665
5501 5501 5501 5502 5504 5505 5507 5509 5511 5514 5517 5520 5523 5527 5531 5535 5539 5544 5548 5553 5558 5563 5568 5573 5577 5582 5587 5592 5597 5602 5607 5611 5616 5620 5624 5628 5632 5635 5639 5642 5646 5649 5652 5655
5497 5496 5497 5498 5500 5501 5502 5504 5507 5509 5513 5515 5518 5521 5525 5528 5532 5536 5541 5545 5550 5554 5559 5564 5568 5573 5578 5582 5587 5591 5596 5600 5605 5609 5613 5617 5621 5624 5628 5631 5634 5638 5641 5644
5492 5493 5493 5497 5495 5496 5497 5499 5501 5504 5507 5509 5512 5515 5518 5521 5525 5529 5533 5537 5542 5546 5550 5555 5559 5563 5568 5572 5576 5581 5585 5589 5593 5597 5601 5605 5609 5613 5616 5620 5623 5626 5630 5633
5488 5488 5488 5491 5490 5491 5492 5494 5496 5498 5501 5503 5505 5509 5512 5514 5518 5521 5525 5529 5533 5537 5541 5545 5550 5554 5558 5562 5566 5570 5573 5577 5581 5585 5589 5593 5597 5601 5605 5608 5612 5615 5617 5621
5485 5484 5485 5487 5486 5486 5488 5489 5491 5492 5495 5497 5499 5503 5506 5508 5511 5514 5517 5521 5524 5528 5532 5536 5540 5544 5548 5552 5555 5559 5562 5566 5570 5574 5578 5581 5585 5589 5592 5596 5599 5602 5605 5608
5481 5480 5481 5482 5482 5483 5485 5486 5486 5487 5489 5491 5493 5496 5499 5501 5504 5507 5509 5513 5516 5520 5523 5527 5530 5534 5538 5542 5545 5548 5552 5555 5559 5562 5566 5569 5573 5576 5580 5583 5587 5590 5593 5596
5478 5477 5480 5478 5478 5479 5480 5480 5480 5481 5483 5485 5487 5489 5492 5494 5497 5499 5502 5505 5508 5511 5514 5517 5521 5524 5528 5531 5535 5538 5542 5545 5548 5551 5554 5557 5561 5564 5567 5570 5574 5577 5580 5584
5476 5476 5474 5473 5473 5473 5474 5474 5475 5476 5477 5479 5481 5483 5485 5488 5490 5492 5495 5497 5500 5503 5506 5508 5511 5514 5518 5521 5524 5528 5531 5534 5537 5540 5543 5546 5549 5552 5555 5559 5562 5565 5568 5572
5471 5471 5470 5469 5468 5468 5469 5469 5470 5471 5472 5473 5475 5476 5479 5481 5483 5485 5488 5490 5493 5495 5497 5500 5502 5504 5507 5510 5514 5517 5521 5523 5526 5529 5532 5535 5538 5541 5544 5547 5550 5553 5556 5560
5468 5467 5466 5465 5464 5464 5464 5464 5464 5465 5466 5467 5469 5470 5472 5474 5476 5478 5480 5482 5484 5487 5489 5491 5493 5495 5497 5500 5503 5507 5510 5513 5516 5519 5522 5525 5528 5530 5533 5536 5539 5542 5545 5548
5464 5463 5461 5461 5459 5458 5458 5458 5459 5460 5461 5461 5462 5464 5465 5467 5468 5470 5472 5474 5476 5478 5480 5482 5484 5486 5488 5490 5493 5496 5499 5502 5505 5508 5511 5514 5517 5520 5522 5525 5528 5531 5534 5536
5459 5457 5456 5455 5454 5453 5452 5452 5453 5454 5454 5455 5456 5457 5458 5460 5461 5463 5464 5466 5468 5470 5472 5473 5475 5477 5479 5481 5484 5486 5489 5492 5495 5498 5501 5504 5507 5510 5513 5515 5517 5520 5522 5525
5454 5452 5451 5450 5449 5447 5447 5446 5447 5447 5448 5449 5449 5450 5451 5453 5454 5456 5457 5458 5460 5462 5463 5465 5467 5469 5471 5473 5474 5477 5479 5482 5485 5488 5490 5493 5497 5499 5502 5505 5507 5509 5512 5514
5449 5447 5445 5444 5443 5442 5441 5440 5441 5441 5441 5442 5443 5443 5444 5445 5447 5448 5450 5451 5452 5454 5456 5457 5459 5461 5463 5464 5466 5468 5470 5472 5475 5477 5480 5483 5486 5489 5491 5494 5497 5499 5501 5503
5443 5441 5439 5438 5437 5436 5435 5434 5434 5435 5435 5435 5436 5436 5437 5438 5440 5441 5442 5444 5446 5447 5448 5450 5451 5453 5454 5456 5457 5459 5461 5463 5465 5468 5470 5473 5476 5478 5481 5484 5486 5488 5490 5492
5437 5436 5434 5433 5431 5430 5429 5428 5428 5428 5428 5429 5429 5430 5430 5431 5433 5434 5435 5437 5438 5440 5441 5442 5444 5445 5446 5447 5448 5450 5452 5454 5456 5458 5461 5463 5466 5468 5471 5473 5475 5478 5480 5481
5432 5430 5429 5427 5426 5424 5423 5422 5422 5422 5422 5422 5422 5423 5424 5424 5425 5427 5428 5430 5431 5432 5434 5435 5436 5437 5438 5439 5440 5442 5443 5445 5447 5449 5452 5454 5456 5458 5461 5463 5465 5467 5469 5471
5427 5426 5424 5422 5420 5419 5417 5417 5416 5416 5416 5416 5416 5416 5417 5418 5419 5420 5421 5422 5424 5425 5426 5427 5428 5429 5431 5431 5432 5434 5435 5437 5439 5441 5443 5445 5446 5449 5451 5453 5455 5457 5459 5460
5423 5421 5419 5417 5415 5414 5412 5411 5411 5410 5410 5410 5410 5411 5411 5412 5412 5413 5414 5415 5416 5417 5419 5420 5421 5422 5423 5424 5425 5426 5427 5429 5430 5432 5434 5436 5437 5439 5441 5443 5445 5446 5448 5450
5419 5417 5414 5413 5411 5409 5407 5406 5405 5405 5405 5405 5405 5405 5405 5406 5406 5407 5408 5409 5410 5410 5411 5412 5413 5414 5415 5416 5417 5418 5420 5421 5422 5423 5425 5427 5428 5430 5432 5434 5435 5437 5438 5440
5414 5412 5410 5408 5406 5404 5403 5401 5400 5400 5399 5399 5399 5399 5400 5400 5400 5401 5401 5402 5403 5404 5404 5405 5405 5406 5407 5408 5409 5410 5411 5413 5414 5415 5416 5418 5419 5421 5423 5425 5426 5428 5429 5430
5410 5408 5406 5404 5402 5400 5398 5397 5396 5395 5394 5394 5394 5394 5394 5394 5394 5395 5395 5396 5396 5397 5397 5398 5398 5399 5399 5400 5401 5402 5403 5404 5406 5407 5408 5409 5411 5413 5414 5416 5417 5419 5420 5421
5405 5403 5401 5399 5397 5395 5393 5392 5391 5390 5389 5389 5389 5388 5388 5388 5389 5389 5389 5389 5390 5390 5390 5391 5391 5392 5392 5393 5394 5395 5395 5396 5398 5399 5400 5401 5402 5404 5405 5407 5408 5409 5410 5411
5400 5398 5396 5394 5392 5390 5388 5387 5386 5385 5384 5383 5383 5383 5383 5383 5383 5383 5383 5383 5383 5383 5384 5384 5384 5385 5385 5386 5387 5387 5388 5389 5390 5391 5392 5393 5394 5395 5397 5398 5399 5400 5401 5402
5395 5393 5391 5389 5387 5385 5383 5382 5380 5379 5378 5378 5377 5377 5377 5376 5376 5376 5376 5376 5376 5376 5377 5377 5377 5377 5378 5379 5379 5380 5381 5381 5382 5383 5384 5385 5386 5387 5388 5389 5391 5391 5392 5393
5390 5388 5386 5384 5381 5379 5378 5376 5375 5374 5373 5372 5371 5371 5370 5370 5370 5370 5369 5369 5369 5370 5370 5370 5370 5370 5371 5371 5372 5372 5373 5374 5375 5376 5377 5378 5378 5379 5380 5381 5382 5383 5383 5384